DW8689 Weather Reports


time (UTC)temp
C
wind
direction
speed
KPH
gust
KPH
rain 1hr
cm
rain 24hr
cm
rain mn
cm
humidity
%
barometer
mb
20260508052011 6 0 0.0 0.0 0.00 0.03 0.00 90 1009.2
20260508051510 6 0 0.0 0.0 0.00 0.03 0.00 90 1009.2
20260508050510 6 0 0.0 0.0 0.00 0.03 0.00 90 1009.1
20260508045511 6 0 0.0 0.0 0.00 0.03 0.00 90 1009.1
20260508045011 6 0 0.0 0.0 0.00 0.03 0.00 90 1009.1
20260508044511 6 0 0.0 0.0 0.00 0.03 0.00 89 1009.1
20260508044010 6 0 0.0 0.0 0.00 0.03 0.00 89 1009.0
20260508043011 6 0 0.0 0.0 0.00 0.03 0.00 89 1008.9
20260508042511 6 0 0.0 0.0 0.00 0.03 0.00 89 1008.9
20260508042011 6 0 0.0 0.0 0.00 0.03 0.00 89 1008.9
20260508041011 6 0 0.0 0.0 0.00 0.03 0.00 89 1008.7
20260508040510 6 0 0.0 0.0 0.00 0.03 0.00 89 1008.7
20260508040011 6 0 0.0 0.0 0.00 0.03 0.00 89 1008.7
20260508035510 6 0 0.0 0.0 0.00 0.03 0.00 89 1008.7
20260508035010 6 0 0.0 0.0 0.00 0.03 0.00 89 1008.7
20260508034510 6 0 0.0 0.0 0.00 0.03 0.00 89 1008.7
20260508034010 6 0 0.0 0.0 0.00 0.03 0.00 89 1008.7
20260508033011 6 0 0.0 0.0 0.00 0.03 0.00 89 1008.7
20260508032510 6 0 0.0 0.0 0.00 0.03 0.00 89 1008.6
20260508032011 6 0 0.0 0.0 0.00 0.03 0.00 89 1008.6
20260508031511 6 0 0.0 0.0 0.00 0.03 0.00 89 1008.6
20260508031011 6 0 0.0 0.0 0.00 0.03 0.00 89 1008.6
20260508030511 6 0 0.0 0.0 0.00 0.03 0.00 89 1008.6
20260508030011 6 0 0.0 0.0 0.00 0.03 0.00 89 1008.6
20260508025011 6 0 0.0 0.0 0.00 0.03 0.00 89 1008.5
20260508024011 6 0 0.0 0.0 0.00 0.03 0.00 89 1008.5
20260508023511 6 0 0.0 0.0 0.00 0.03 0.00 89 1008.5
20260508023010 6 0 0.0 0.0 0.00 0.03 0.00 89 1008.4
20260508022511 6 0 0.0 0.0 0.00 0.03 0.00 89 1008.4
20260508021510 6 0 0.0 0.0 0.00 0.03 0.00 89 1008.3
20260508021011 6 0 0.0 0.0 0.00 0.03 0.00 89 1008.3
20260508020510 6 0 0.0 0.0 0.00 0.03 0.00 89 1008.3
20260508020011 7 0 0.0 0.0 0.00 0.03 0.00 89 1008.3
20260508015511 6 0 0.0 0.0 0.00 0.03 0.00 89 1008.2
20260508015011 7 0 0.0 0.0 0.00 0.03 0.00 89 1008.2
20260508014510 7 0 0.0 0.0 0.00 0.03 0.00 89 1008.2
20260508014011 7 0 0.0 0.0 0.00 0.03 0.00 89 1008.2
20260508013511 7 0 0.0 0.0 0.00 0.03 0.00 89 1008.2
20260508013011 7 0 0.0 0.0 0.00 0.03 0.00 88 1008.2
20260508012010 7 0 0.0 0.0 0.00 0.03 0.00 88 1008.2
20260508011510 7 0 0.0 0.0 0.00 0.03 0.00 88 1008.2
20260508011010 7 0 0.0 0.0 0.00 0.03 0.00 88 1008.2
20260508010011 7 0 0.0 0.0 0.00 0.03 0.00 88 1008.3
20260508005511 7 0 0.0 0.0 0.00 0.03 0.00 88 1008.2
20260508005011 7 0 0.0 0.0 0.00 0.03 0.00 88 1008.3
20260508004011 7 0 0.0 0.0 0.00 0.03 0.00 88 1008.2
20260508003511 7 0 0.0 0.0 0.00 0.03 0.00 88 1008.2
20260508002511 7 0 0.0 0.0 0.00 0.03 0.00 88 1008.2
20260508002011 7 0 0.0 0.0 0.00 0.03 0.00 88 1008.2
20260508001510 7 0 0.0 0.0 0.00 0.03 0.00 88 1008.1
20260508001010 7 0 0.0 0.0 0.00 0.03 0.00 88 1008.1
20260508000511 7 0 0.0 0.0 0.00 0.03 0.00 87 1008.2
20260507235511 7 266 0.0 4.8 0.00 0.03 0.00 87 1008.1
20260507235011 7 266 0.0 4.8 0.00 0.03 0.00 87 1008.1
20260507233011 7 265 1.6 4.8 0.00 0.03 0.00 87 1008.1
20260507231511 7 257 1.6 4.8 0.00 0.03 0.00 86 1008.0
20260507231011 7 251 1.6 6.4 0.00 0.03 0.00 86 1008.0
20260507230510 7 251 1.6 6.4 0.00 0.03 0.00 86 1008.0
20260507230013 7 255 1.6 4.8 0.00 0.03 0.00 86 1008.0
20260507225511 7 255 0.0 4.8 0.00 0.03 0.03 86 1007.9
20260507225010 7 0 0.0 0.0 0.00 0.03 0.03 85 1007.9
20260507224010 7 0 0.0 0.0 0.00 0.03 0.03 85 1007.8
20260507223010 7 0 0.0 0.0 0.00 0.03 0.03 85 1007.7
20260507222511 7 0 0.0 0.0 0.00 0.03 0.03 86 1007.7
20260507222011 7 0 0.0 0.0 0.00 0.03 0.03 86 1007.7
20260507221510 7 0 0.0 0.0 0.00 0.03 0.03 86 1007.7
20260507221011 7 0 0.0 0.0 0.00 0.03 0.03 86 1007.7
20260507220510 7 0 0.0 0.0 0.00 0.03 0.03 86 1007.6
20260507220011 7 0 0.0 0.0 0.00 0.03 0.03 86 1007.5
20260507215011 7 0 0.0 0.0 0.00 0.03 0.03 86 1007.6
20260507214510 7 0 0.0 0.0 0.00 0.03 0.03 86 1007.5
20260507214011 7 0 0.0 0.0 0.00 0.03 0.03 86 1007.6
20260507213010 7 0 0.0 0.0 0.00 0.03 0.03 86 1007.4
20260507212510 7 0 0.0 0.0 0.00 0.03 0.03 86 1007.4
20260507212011 7 0 0.0 0.0 0.00 0.03 0.03 86 1007.3
20260507211511 7 0 0.0 0.0 0.00 0.03 0.03 86 1007.4
20260507211012 7 0 0.0 0.0 0.00 0.03 0.03 86 1007.4
20260507210510 7 0 0.0 0.0 0.00 0.03 0.03 86 1007.4
20260507210011 7 0 0.0 0.0 0.00 0.03 0.03 86 1007.3
20260507205511 7 257 0.0 1.6 0.00 0.03 0.03 86 1007.3
20260507204011 7 265 1.6 4.8 0.00 0.03 0.03 85 1007.1
20260507203011 7 270 1.6 4.8 0.00 0.03 0.03 85 1006.9
20260507202510 8 266 1.6 4.8 0.00 0.03 0.03 84 1006.9
20260507202011 8 263 1.6 4.8 0.00 0.03 0.03 84 1006.9
20260507201511 8 265 1.6 4.8 0.00 0.03 0.03 84 1006.9
20260507201011 8 267 1.6 4.8 0.00 0.03 0.03 84 1006.9
20260507200511 8 267 1.6 4.8 0.00 0.03 0.03 83 1006.8
20260507195511 8 266 1.6 4.8 0.00 0.03 0.03 83 1006.8
20260507195011 8 266 1.6 8.0 0.00 0.03 0.03 82 1006.7
20260507194510 8 259 3.2 8.0 0.00 0.03 0.03 82 1006.6
20260507194010 8 256 3.2 8.0 0.00 0.03 0.03 82 1006.5
20260507193510 8 255 3.2 9.7 0.00 0.03 0.03 82 1006.5
20260507193011 9 254 3.2 9.7 0.00 0.03 0.03 82 1006.4
20260507192511 9 254 3.2 8.0 0.00 0.03 0.03 81 1006.5
20260507192011 9 258 3.2 8.0 0.00 0.03 0.03 81 1006.5
20260507191510 9 262 3.2 8.0 0.00 0.03 0.03 81 1006.4
20260507191010 9 257 3.2 8.0 0.00 0.03 0.03 81 1006.4
20260507190510 9 256 3.2 8.0 0.00 0.03 0.03 81 1006.3
20260507190010 9 258 3.2 9.7 0.00 0.03 0.03 81 1006.3
20260507185510 9 257 4.8 9.7 0.00 0.03 0.03 81 1006.3
20260507185011 10 259 3.2 8.0 0.00 0.03 0.03 81 1006.2
20260507184011 10 266 3.2 8.0 0.00 0.03 0.03 81 1006.1
20260507183510 10 266 3.2 6.4 0.00 0.03 0.03 81 1006.1
20260507183010 10 263 3.2 8.0 0.00 0.03 0.03 81 1006.1
20260507182510 10 264 3.2 9.7 0.00 0.03 0.03 81 1006.0
20260507181511 10 256 4.8 11.3 0.00 0.03 0.03 81 1006.0
20260507180510 10 266 4.8 8.0 0.00 0.03 0.03 81 1006.0
20260507180011 10 267 4.8 8.0 0.00 0.03 0.03 80 1005.9
20260507175511 10 278 3.2 6.4 0.00 0.03 0.03 80 1005.9
20260507175010 10 278 3.2 6.4 0.00 0.03 0.03 78 1005.9
20260507174010 10 268 1.6 6.4 0.00 0.03 0.03 77 1005.8
20260507173510 10 266 3.2 9.7 0.00 0.03 0.03 77 1005.8
20260507173011 10 265 4.8 9.7 0.00 0.03 0.03 75 1005.7
20260507172511 11 269 3.2 9.7 0.00 0.03 0.03 75 1005.8
20260507171509 11 262 4.8 12.9 0.00 0.03 0.03 73 1005.8
20260507171011 11 255 8.0 12.9 0.00 0.03 0.03 72 1005.7
20260507170511 11 253 6.4 12.9 0.00 0.03 0.03 70 1005.6
20260507170011 11 247 6.4 11.3 0.00 0.03 0.03 70 1005.7
20260507165010 11 239 6.4 14.5 0.00 0.03 0.03 69 1005.7
20260507164011 12 242 4.8 11.3 0.00 0.03 0.03 70 1005.6
20260507162510 12 243 6.4 14.5 0.00 0.03 0.03 72 1005.6
20260507162010 12 235 4.8 14.5 0.00 0.03 0.03 73 1005.6
20260507161510 12 236 6.4 14.5 0.00 0.03 0.03 75 1005.6
20260507161011 11 227 6.4 11.3 0.00 0.03 0.03 74 1005.6
20260507160511 11 230 6.4 11.3 0.00 0.03 0.03 74 1005.5
20260507160011 11 223 6.4 19.3 0.00 0.03 0.03 73 1005.5
20260507155510 11 223 6.4 19.3 0.00 0.03 0.03 75 1005.5
20260507155011 11 237 8.0 19.3 0.00 0.03 0.03 75 1005.5
20260507154510 11 250 6.4 19.3 0.00 0.03 0.03 74 1005.5
20260507152510 12 228 6.4 16.1 0.00 0.03 0.03 68 1005.4
20260507152010 12 230 6.4 12.9 0.00 0.03 0.03 66 1005.4
20260507151011 13 226 6.4 17.7 0.00 0.03 0.03 65 1005.4
20260507150510 13 218 6.4 17.7 0.00 0.03 0.03 65 1005.4
20260507145010 12 218 4.8 14.5 0.00 0.03 0.03 65 1005.5
20260507144510 12 205 4.8 12.9 0.00 0.03 0.03 65 1005.5
20260507144010 13 205 8.0 25.7 0.00 0.03 0.03 66 1005.5
20260507143511 12 205 8.0 25.7 0.00 0.03 0.03 66 1005.5
20260507143010 12 205 8.0 25.7 0.00 0.03 0.03 66 1005.5
20260507142511 12 205 8.0 25.7 0.00 0.03 0.03 66 1005.5
20260507142010 12 216 8.0 25.7 0.00 0.03 0.03 66 1005.5
20260507141510 12 235 8.0 25.7 0.00 0.03 0.03 65 1005.6
20260507141010 13 247 8.0 16.1 0.00 0.03 0.03 66 1005.6
20260507135510 13 233 8.0 17.7 0.00 0.03 0.03 68 1005.6
20260507135010 13 226 6.4 20.9 0.00 0.03 0.03 69 1005.6
20260507133510 12 222 4.8 12.9 0.00 0.03 0.03 70 1005.5
20260507131010 11 220 4.8 14.5 0.03 0.03 0.03 77 1005.8
20260507130511 11 216 4.8 12.9 0.03 0.03 0.03 78 1005.8
20260507130011 11 224 6.4 12.9 0.03 0.03 0.03 79 1005.9
20260507125510 11 228 4.8 9.7 0.03 0.03 0.03 81 1005.9
20260507125011 10 223 3.2 9.7 0.03 0.03 0.03 81 1006.0
20260507124510 10 219 3.2 9.7 0.03 0.03 0.03 80 1006.0
20260507124011 10 232 3.2 11.3 0.03 0.03 0.03 79 1006.1
20260507123511 10 236 4.8 11.3 0.03 0.03 0.03 76 1006.1
20260507122510 11 234 6.4 14.5 0.00 0.00 0.00 73 1006.1
20260507122011 11 240 6.4 14.5 0.00 0.00 0.00 71 1006.1
20260507121509 12 239 8.0 14.5 0.00 0.00 0.00 68 1006.0
20260507121011 12 229 8.0 14.5 0.00 0.00 0.00 64 1005.9
20260507120511 12 217 6.4 19.3 0.00 0.00 0.00 63 1005.9
20260507115510 13 224 6.4 14.5 0.00 0.00 0.00 64 1005.9
20260507115010 13 220 6.4 17.7 0.00 0.00 0.00 61 1005.8
20260507114511 13 215 8.0 20.9 0.00 0.00 0.00 62 1005.8
20260507114011 13 208 6.4 20.9 0.00 0.00 0.00 62 1005.9
20260507113511 13 203 6.4 17.7 0.00 0.00 0.00 63 1005.9
20260507113011 13 211 8.0 19.3 0.00 0.00 0.00 64 1005.9
20260507112510 12 222 6.4 20.9 0.00 0.00 0.00 65 1005.8
20260507112011 12 216 4.8 20.9 0.00 0.00 0.00 65 1005.9
20260507111011 12 209 4.8 14.5 0.00 0.00 0.00 65 1005.9
20260507110509 12 198 4.8 11.3 0.00 0.00 0.00 66 1005.9
20260507110011 12 202 6.4 16.1 0.00 0.00 0.00 66 1005.9
20260507105510 12 208 6.4 17.7 0.00 0.00 0.00 68 1006.0
20260507104510 11 232 4.8 11.3 0.00 0.00 0.00 72 1006.1
20260507104008 11 223 4.8 11.3 0.00 0.00 0.00 71 1006.2
20260507103509 10 218 4.8 12.9 0.00 0.00 0.00 72 1006.2
20260507103011 10 223 4.8 12.9 0.00 0.00 0.00 71 1006.2
20260507102509 10 224 3.2 11.3 0.00 0.00 0.00 72 1006.2
20260507102010 10 214 4.8 16.1 0.00 0.00 0.00 72 1006.2
20260507101009 10 204 4.8 14.5 0.00 0.00 0.00 71 1006.1
20260507100510 10 204 4.8 12.9 0.00 0.00 0.00 72 1006.1
20260507100011 10 212 4.8 14.5 0.00 0.00 0.00 71 1006.1
20260507095511 11 216 4.8 14.5 0.00 0.00 0.00 72 1006.1
20260507095010 11 205 4.8 14.5 0.00 0.00 0.00 73 1006.1
20260507093510 10 218 4.8 14.5 0.00 0.00 0.00 70 1006.1
20260507093010 10 227 6.4 14.5 0.00 0.00 0.00 70 1006.1
20260507092509 11 216 4.8 9.7 0.00 0.00 0.00 72 1006.1
20260507092009 11 186 8.0 11.3 0.00 0.00 0.00 72 1006.1
20260507091011 10 186 8.0 11.3 0.00 0.00 0.00 75 1006.2
20260507090510 10 186 8.0 11.3 0.00 0.00 0.00 75 1006.2
20260507085510 10 186 8.0 11.3 0.00 0.00 0.00 75 1006.2
20260507084510 10 172 9.7 11.3 0.00 0.00 0.00 76 1006.1
20260507084010 10 153 3.2 6.4 0.00 0.00 0.00 77 1006.2
20260507083510 10 153 3.2 6.4 0.00 0.00 0.00 79 1006.1
20260507083010 10 162 4.8 8.0 0.00 0.00 0.00 79 1006.2
20260507082510 9 233 8.0 12.9 0.00 0.00 0.00 79 1006.2
20260507082011 9 239 6.4 12.9 0.00 0.00 0.00 79 1006.2
20260507081510 9 215 4.8 12.9 0.00 0.00 0.00 79 1006.3
20260507081010 9 210 4.8 14.5 0.00 0.00 0.00 79 1006.3
20260507080510 9 215 4.8 14.5 0.00 0.00 0.00 81 1006.2
20260507080010 9 225 4.8 9.7 0.00 0.00 0.00 81 1006.2
20260507075509 8 234 3.2 8.0 0.00 0.00 0.00 82 1006.2
20260507075011 8 236 3.2 8.0 0.00 0.00 0.00 83 1006.2
20260507074510 8 222 3.2 8.0 0.00 0.00 0.00 83 1006.2
20260507074010 8 204 3.2 12.9 0.00 0.00 0.00 83 1006.2
20260507073510 8 194 3.2 12.9 0.00 0.00 0.00 84 1006.2
20260507073010 7 198 3.2 12.9 0.00 0.00 0.00 84 1006.2
20260507072510 7 200 3.2 11.3 0.00 0.00 0.00 84 1006.2
20260507072010 7 195 4.8 12.9 0.00 0.00 0.00 84 1006.2
20260507071510 7 202 4.8 12.9 0.00 0.00 0.00 84 1006.2
20260507071010 7 206 4.8 11.3 0.00 0.00 0.00 85 1006.2
20260507070012 6 209 3.2 11.3 0.00 0.00 0.00 85 1006.2
20260507064510 6 185 3.2 8.0 0.00 0.00 0.00 85 1006.2
20260507064011 6 188 3.2 8.0 0.00 0.00 0.00 85 1006.3
20260507063510 6 193 3.2 9.7 0.00 0.00 0.00 85 1006.2
20260507063010 6 192 3.2 11.3 0.00 0.00 0.00 85 1006.1
20260507062510 6 190 3.2 11.3 0.00 0.00 0.00 85 1006.1
20260507062010 6 186 3.2 8.0 0.00 0.00 0.00 86 1006.2
20260507061510 5 184 3.2 9.7 0.00 0.00 0.00 86 1006.2
20260507061011 5 182 3.2 9.7 0.00 0.00 0.00 86 1006.1
20260507060511 5 178 1.6 6.4 0.00 0.00 0.00 86 1006.2
20260507060010 5 190 1.6 6.4 0.00 0.00 0.00 87 1006.2
20260507054510 4 193 3.2 9.7 0.00 0.00 0.00 87 1006.2
20260507054011 4 186 3.2 9.7 0.00 0.00 0.00 86 1006.2
20260507053510 4 182 1.6 8.0 0.00 0.00 0.00 86 1006.1
20260507052509 4 202 1.6 6.4 0.00 0.00 0.00 87 1006.2